Location: ????
(33.1659°N, 35.6604°E)
Time: 15:03:45
(UTC+00:00)

ISS - Pass Details

Date: 20 September 2019
Orbit: 411 x 421 km, 51.6° (Epoch: 21 October)

Event Time Altitude Azimuth Distance (km) Brightness Sun altitude
Rises 16:06:20 0° 223° (SW) 2,329 0.6 -6.9°
Reaches altitude 10° 16:08:24 10° 223° (SW) 1,470 -0.4 -7.3°
Maximum altitude 16:11:42 82° 138° (SE) 417 -3.9 -8.0°
Drops below altitude 10° 16:15:01 10° 48° (NE) 1,476 -1.4 -8.7°
Enters shadow 16:16:24 - 47° (NE) 2,046 -0.6 -8.9°
